Regional Weather Roundup
Issued by NWS Kansas City/Pleasant Hill, MO

Home | Current Version | Previous Version | Text Only | Print | Product List | Glossary On
Versions: 1 2 3 4 5 6 7 8 9 10 11 12 13 14 15 16 17 18 19 20 21 22 23 24 25 26 27
000
ASUS43 KEAX 242310
RWREAX

WEATHER ROUNDUP FOR EASTERN KANSAS AND NORTHWEST MISSOURI
NATIONAL WEATHER SERVICE KANSAS CITY/PLEASANT HILL MO
600 PM CDT TUE MAY 24 2016

KSZ040-057-103>105-MOZ028-029-037-043-250000-
...KANSAS CITY METROPOLITAN AREA...

CITY           SKY/WX    TMP DP  RH WIND       PRES   REMARKS
K.C. INTL      MOSUNNY   79  67  66 S8        29.90R
K.C. DOWNTOWN  SUNNY     80  65  59 S7        29.89R
LEES SUMMIT    SUNNY     79  63  57 S9        29.91R
OLATHE - IXD   SUNNY     79  67  66 S9        29.89F
OLATHE - OJC   SUNNY     77  66  68 VRB6      29.89S
LAWRENCE       SUNNY     80  66  62 SE7       29.87S

$$

MOZ001>008-011>017-020>025-030>033-038>040-044>046-053-054-250000-
...NORTHERN AND CENTRAL MISSOURI...

CITY           SKY/WX    TMP DP  RH WIND       PRES   REMARKS
ST. JOSEPH     SUNNY     80  63  55 S5        29.89R
MOSBY          PTCLDY    77  64  65 S6        29.91R
WARRENSBURG    CLOUDY    77  63  61 S12       29.92R
WHITEMAN AFB   MOSUNNY   77  66  67 SW14      29.92R
CLINTON        MOSUNNY   77  66  69 S10G16    29.92R
SEDALIA        CLOUDY    78  63  59 SW9       29.95R
WARSAW         NOT AVBL
CHILLICOTHE      N/A     77  67  71 S6        29.92R
KIRKSVILLE     CLOUDY    76  66  71 S8        29.95R

$$

MOZ041-047>049-056>058-063>065-088>090-097-250000-
...EASTERN AND SOUTHERN MISSOURI...

CITY           SKY/WX    TMP DP  RH WIND       PRES   REMARKS
ST. LOUIS INTL CLOUDY    74  60  61 S8G18     29.95F
SPIRIT OF STL  CLOUDY    71  63  75 SW7       29.95F
COLUMBIA       CLOUDY    70  65  84 E8        29.95R
JEFFERSON CITY CLOUDY    70  64  81 SE3       29.96R
ROLLA          CLOUDY    65  63  93 S14G24    29.95R
SPRINGFIELD    CLOUDY    67  60  78 SE17      29.98R
BRANSON        PTSUNNY   63  63 100 SE12      30.04R
JOPLIN         CLOUDY    80  70  71 S13       29.92S
WEST PLAINS    CLOUDY    64  60  87 S6        30.05R

$$

IAZ060-094-KSZ022-034>040-054-083-096-NEZ052-066-093-250000-
...KANSAS...SOUTHEAST NEBRASKA AND IOWA...

CITY           SKY/WX    TMP DP  RH WIND       PRES   REMARKS
TOPEKA         SUNNY     81  65  58 S7        29.86S
MANHATTAN      SUNNY     83  65  54 S13       29.84F
EMPORIA        SUNNY     80  69  69 S16       29.87S
CHANUTE        CLOUDY    80  72  76 SE9       29.89R
WICHITA        MOSUNNY   83  71  67 SE20G25   29.83F
OMAHA          MOSUNNY   82  59  45 S7        29.86F
LINCOLN        SUNNY     81  59  47 S6        29.87F
FALLS CITY     SUNNY     83  61  47 SW8       29.86F
LAMONI         SUNNY     79  61  53 S8        29.90F
DES MOINES     PTSUNNY   84  59  42 SW7       29.88F

$$





USA.gov is the U.S. government's official web portal to all federal, state and local government web resources and services.